EHI
1 1 0 0 0 0 0 0 0 0 0 0 0 0 0 0 0 0 0 0 0 0 0 0 0 0 0 0 0 0 0 0 0 1 2 2 1 0 1 1 1 1 2 1 1 1 1 0 0
1 0 0 0 0 0 0 0 0 0 0 0 0 0 0 0 0 0 0 0 0 0 0 0 0 0 0 1 1 1 0 0 0 1 2 3 1 1 1 1 2 3 3 2 2 2 2 1 0
0 0 0 0 0 0 0 0 0 0 0 0 0 0 0 0 0 0 0 0 0 0 0 0 0 0 0 1 2 1 0 0 0 1 2 2 2 2 2 2 3 3 3 2 2 3 2 1 0
0 0 0 0 0 0 0 0 0 0 0 0 0 0 0 0 0 0 0 0 0 0 0 0 0 0 0 1 1 1 1 1 1 2 2 1 1 1 1 1 2 1 1 1 2 2 1 0 0
0 0 0 0 0 0 0 0 0 0 0 0 0 0 0 0 0 0 0 0 0 0 0 0 0 0 0 0 0 0 1 2 2 1 1 1 1 1 0 0 0 0 0 1 1 1 0 0 0
0 0 0 0 0 0 0 0 0 0 0 0 0 0 0 0 0 0 0 0 0 0 0 0 0 0 0 0 0 0 1 1 2 1 0 0 0 1 1 0 0 0 0 0 0 0 0 0 1
0 0 0 0 0 0 0 0 0 0 0 0 0 0 0 0 0 0 0 0 0 0 0 0 0 0 0 0 0 0 0 1 2 1 0 0 0 0 0 0 0 0 0 0 0 0 0 0 1
0 0 0 0 0 0 0 0 0 0 0 0 0 0 0 0 0 0 0 0 0 0 0 0 0 0 0 0 0 0 0 1 1 1 0 0 0 0 0 0 0 0 0 0 1 1 0 0 1
0 0 0 0 0 0 0 0 0 0 0 0 0 0 0 0 0 0 0 0 0 0 0 0 0 0 0 0 0 0 0 1 1 0 0 0 0 0 0 0 0 0 0 1 1 1 0 0 0
0 0 0 0 0 0 0 0 0 0 0 0 0 0 1 2 1 0 0 0 0 0 0 0 0 0 0 0 0 0 0 1 1 0 0 0 0 0 0 0 0 0 0 1 1 1 0 0 0
0 0 0 0 0 0 0 0 0 0 0 0 0 1 3 4 2 1 0 0 0 0 0 0 0 0 0 0 0 0 0 0 0 0 0 0 0 0 0 0 0 0 0 0 0 0 0 0 0
0 0 0 0 0 1 1 1 0 0 0 0 1 2 3 3 2 1 0 0 0 0 0 0 0 0 0 0 0 0 0 0 0 0 0 0 0 0 0 0 0 0 0 0 0 0 0 0 0
0 0 0 0 1 2 2 1 0 0 0 0 1 2 2 2 1 0 0 0 0 0 0 0 0 0 0 0 0 0 0 0 0 0 0 0 0 0 0 0 0 0 0 0 0 0 0 0 0
0 0 0 0 1 2 2 1 0 0 0 0 0 1 1 1 1 0 0 0 0 0 0 0 0 0 0 0 0 0 0 0 0 0 0 0 0 0 0 0 0 0 0 0 0 0 0 0 0
0 0 0 0 0 1 1 0 0 0 0 0 0 0 0 0 0 0 0 0 0 0 0 0 0 0 0 0 0 0 0 0 0 0 0 0 0 0 0 0 0 0 0 0 0 0 0 0 0
0 0 0 0 0 0 0 0 0 0 1 0 0 0 0 0 0 0 0 0 0 0 0 0 0 0 0 0 0 0 0 0 0 0 0 0 0 0 0 0 0 0 0 0 0 0 0 0 0
0 0 0 0 0 0 0 0 0 0 0 0 0 0 0 0 0 0 0 0 0 0 0 0 0 0 0 0 0 0 0 0 0 0 0 0 0 0 0 0 0 0 0 0 0 0 0 0 0
0 0 0 0 0 0 0 0 0 0 0 0 0 0 0 0 0 0 0 0 0 0 0 0 0 0 0 0 0 0 0 0 0 0 0 0 0 0 0 0 0 0 0 0 0 0 0 0 0
0 0 0 0 0 0 0 0 0 0 0 0 0 0 0 0 0 0 0 0 0 0 0 0 0 1 0 0 0 0 0 0 0 0 0 0 0 0 0 0 0 0 0 0 0 0 0 0 0
0 0 0 0 0 0 0 0 0 0 0 0 0 0 0 0 0 0 0 0 0 0 0 0 0 0 0 0 0 0 0 0 0 0 0 0 0 0 0 0 0 0 0 0 0 0 0 0 0
0 0 0 0 0 0 0 0 0 0 0 0 0 0 0 0 0 0 0 0 0 0 0 0 0 0 0 0 0 0 0 0 0 0 0 0 0 0 0 0 0 0 0 0 0 0 0 0 0
0 0 0 0 0 0 0 0 0 0 0 0 0 0 0 0 0 0 0 0 0 0 0 0 0 0 0 0 0 0 0 0 0 0 0 0 0 0 0 0 0 0 0 0 0 0 0 0 0
0 0 0 0 0 0 0 0 0 0 0 0 0 0 0 0 0 0 0 0 0 0 0 0 0 0 0 0 0 0 0 0 0 0 0 0 0 0 0 0 0 0 0 0 0 0 0 0 0
0 0 0 0 0 0 0 0 0 0 0 0 0 0 0 0 0 0 0 0 0 0 0 0 0 0 0 0 0 0 0 0 0 0 0 0 0 0 0 0 0 0 0 0 0 0 0 0 0
0 0 0 0 0 0 0 0 0 0 0 0 0 0 0 0 0 0 0 0 0 0 0 0 0 0 0 0 0 0 0 0 0 0 0 0 0 0 0 0 0 0 0 0 0 0 0 0 0
0 0 0 0 0 0 0 0 0 0 0 0 0 0 0 0 0 0 1 1 1 0 0 0 0 0 0 0 0 0 0 0 0 0 0 0 0 0 0 0 0 0 0 0 0 0 0 0 0
0 0 0 0 0 0 0 0 0 0 0 0 0 0 0 0 0 0 1 1 1 0 0 0 0 0 0 0 0 0 0 0 0 0 0 0 0 0 0 0 0 0 0 0 0 0 0 0 0
0 0 0 0 0 0 0 0 0 0 0 0 0 0 0 0 0 0 0 0 0 0 0 0 0 0 0 0 0 0 0 0 0 0 0 0 0 0 0 0 0 0 0 0 0 0 0 0 0
0 0 0 0 0 0 0 0 0 0 0 0 0 0 0 0 0 0 0 0 0 0 0 0 0 0 0 0 0 0 0 0 0 0 0 0 0 0 0 0 0 0 0 0 0 0 0 0 0
0 0 0 0 0 0 0 0 0 0 0 0 0 0 0 0 0 0 0 0 0 0 0 0 0 0 0 0 0 0 0 0 0 0 0 0 0 0 0 0 0 0 0 0 0 0 0 0 0
Wind_Speed
3 4 3 4 7 6 3 2 1 1 2 2 4 6 5 4 2 1 2 1 1 1 2 2 4 6 7 7 8 8 9 9 9 9 9 9 9 9 10 10 10 10 10 10 10 10 10 10 10
1 2 5 6 6 4 2 2 1 1 3 4 4 5 5 3 2 2 1 1 1 2 2 2 5 6 7 8 9 9 9 10 10 10 10 10 10 10 10 10 10 10 10 10 10 10 10 10 10
2 4 5 5 4 3 1 0 2 3 3 2 4 4 4 2 1 1 1 1 2 3 3 2 6 7 8 8 9 9 9 10 11 11 11 10 10 10 10 10 10 10 10 10 10 10 10 10 9
3 5 6 6 4 1 1 1 2 3 3 4 4 4 3 2 1 2 2 3 3 3 3 3 6 7 8 8 9 10 10 10 11 11 11 11 11 11 10 10 10 10 10 10 9 9 9 10 9
5 5 6 4 2 1 0 0 2 3 3 3 4 4 2 4 3 5 4 3 4 3 3 3 6 7 8 8 9 9 10 10 11 10 11 11 11 11 10 10 11 10 10 10 10 9 9 10 10
5 5 5 2 1 2 1 1 3 4 3 3 4 3 1 2 3 3 3 3 3 3 3 3 5 6 7 8 8 9 9 10 10 10 10 10 10 10 10 10 10 10 10 10 10 10 10 10 9
5 5 4 3 1 1 1 1 3 3 3 2 3 4 1 1 1 3 3 3 3 3 3 3 4 4 6 7 8 9 9 9 10 10 10 10 11 11 10 10 10 10 10 11 10 10 10 10 9
5 5 3 2 2 0 0 2 2 3 2 2 3 5 3 3 2 4 4 4 4 3 3 3 4 4 4 4 6 8 8 9 10 10 10 11 11 10 10 9 10 10 11 11 11 11 10 10 10
4 6 2 2 3 1 1 3 2 3 4 3 2 2 2 5 5 5 4 4 3 3 3 3 3 4 4 3 5 6 7 8 8 8 10 10 6 6 6 9 11 11 12 12 12 11 11 11 10
5 4 2 2 3 3 2 3 3 4 4 3 4 4 5 6 6 5 4 2 1 1 1 2 2 2 3 3 4 4 4 5 5 5 6 5 5 6 7 10 12 12 12 12 13 13 11 8 5
4 3 1 0 2 3 3 2 3 6 2 3 4 5 5 5 5 4 3 2 1 0 1 1 1 2 2 2 3 2 2 3 4 5 5 5 5 5 6 4 6 7 8 6 8 8 5 5 5
3 1 2 1 2 3 3 2 3 2 3 3 6 8 6 5 4 4 3 2 1 1 0 1 1 2 2 2 2 2 2 2 3 3 4 4 3 4 4 4 4 4 3 4 5 4 5 6 6
2 1 2 2 3 3 4 3 3 1 1 4 6 7 6 6 4 3 2 2 2 1 1 1 2 2 2 2 2 2 2 2 2 3 3 4 3 4 4 3 4 4 3 4 4 5 5 6 6
2 2 2 2 3 2 5 2 3 1 3 6 6 5 5 4 4 2 2 2 2 1 1 1 2 2 2 2 2 2 2 2 2 3 3 4 3 3 3 4 4 4 3 3 4 4 5 4 4
3 4 3 2 2 1 4 3 1 2 5 5 4 4 3 3 3 3 4 3 3 2 1 2 2 2 2 2 2 2 2 2 2 2 3 3 3 3 3 3 3 3 3 4 4 5 4 5 5
4 4 1 2 1 1 4 2 2 2 6 5 3 3 3 2 2 3 3 2 2 2 2 1 2 3 2 2 2 2 2 2 2 2 2 3 3 3 3 3 3 3 3 3 4 4 4 4 4
3 1 1 2 0 2 3 3 2 3 5 5 4 4 3 2 2 2 2 3 2 3 3 2 2 3 3 2 2 2 2 2 2 2 2 2 3 3 3 3 2 3 3 3 3 4 3 3 4
2 2 1 2 1 3 2 3 1 3 5 5 4 3 3 3 4 3 2 2 2 2 2 3 3 3 3 3 2 3 3 2 2 2 2 2 2 3 3 3 3 3 3 3 3 4 4 3 3
4 3 2 3 2 3 3 3 2 3 3 3 3 3 4 5 3 2 2 2 2 2 3 2 3 3 3 2 2 2 1 1 1 1 2 2 2 3 3 3 3 3 3 3 3 3 4 3 2
3 2 2 2 0 3 2 3 2 3 5 6 6 6 5 3 1 1 1 2 3 3 3 3 3 3 3 3 2 2 2 1 1 1 2 2 2 2 2 2 2 2 3 3 3 3 2 2 2
2 4 4 2 2 2 1 4 2 1 2 2 3 4 4 5 4 3 2 3 3 4 4 4 4 3 3 3 3 3 3 2 2 2 2 2 2 2 2 2 2 2 2 2 2 2 3 1 2
3 3 4 3 2 1 1 2 5 2 1 2 3 3 4 4 4 3 3 3 4 5 4 4 4 4 4 4 4 5 3 2 1 1 0 1 1 1 2 2 2 2 2 2 1 2 2 2 1
3 2 3 2 3 1 1 1 7 1 2 5 5 5 5 5 4 4 4 4 3 3 4 4 4 3 3 4 5 5 3 2 1 1 1 1 1 1 2 2 2 2 1 2 1 2 2 2 2
4 5 5 4 4 0 2 3 6 3 5 4 4 5 5 5 4 4 3 2 1 2 3 3 4 3 3 4 4 5 4 3 3 2 1 1 1 1 1 1 1 1 1 1 1 1 2 1 2
5 6 3 4 3 4 2 2 7 5 4 4 5 5 6 5 4 4 3 3 3 3 3 3 5 3 3 4 4 4 5 5 4 3 3 2 1 0 0 1 1 1 1 1 1 2 1 1 2
3 7 6 4 4 4 1 4 6 3 3 2 2 3 3 3 4 5 4 4 4 4 4 4 5 4 4 4 4 3 4 3 3 3 3 3 2 2 2 1 1 1 1 2 2 1 1 1 1
5 2 4 5 2 1 4 5 6 2 3 2 1 1 2 3 4 4 4 4 4 4 4 5 6 5 5 5 4 3 3 3 3 3 2 2 2 2 2 2 2 1 2 2 2 1 1 1 1
5 7 5 4 3 3 4 4 4 4 3 2 1 1 2 2 2 3 3 3 4 4 4 3 4 5 5 4 4 4 4 4 3 3 3 3 2 2 2 2 2 2 2 2 2 1 1 2 1
3 3 4 4 4 4 3 6 5 5 4 4 4 3 3 3 3 3 3 3 3 2 2 3 3 4 4 4 4 4 3 3 3 3 3 3 3 3 3 3 2 2 2 2 2 2 1 2 1
4 5 6 5 3 3 3 7 4 3 3 3 4 3 2 2 2 2 2 1 1 2 2 3 3 4 4 4 4 3 3 3 3 3 3 3 3 3 3 3 3 3 2 2 3 2 2 2 1
Wind_Direction
30 60 64 57 55 53 51 355 6 50 63 56 69 81 92 78 72 118 292 333 19 17 353 15 48 53 57 59 63 64 63 63 63 66 67 67 71 83 88 93 93 92 91 91 90 91 94 96 95
68 75 52 57 76 72 5 330 50 65 133 129 76 72 75 61 58 90 327 325 56 53 21 35 63 62 64 65 65 69 68 64 64 66 67 68 72 79 85 90 91 89 88 88 88 90 92 94 95
84 57 74 66 81 126 144 324 99 75 86 91 78 60 71 68 78 132 261 104 67 51 31 43 74 72 71 70 69 72 70 67 65 64 65 68 71 76 82 85 86 87 86 84 84 87 88 90 91
76 47 56 69 78 135 173 212 136 111 60 51 87 69 59 30 136 146 120 92 77 55 36 42 72 73 73 72 71 71 69 68 67 64 64 65 67 70 74 78 81 85 86 84 82 84 86 88 88
60 70 65 61 48 12 352 131 103 94 70 55 84 89 41 0 74 106 108 90 85 64 44 42 68 70 71 70 71 71 70 70 69 66 66 66 67 70 73 75 77 79 83 84 81 82 84 87 88
58 65 81 84 35 5 359 53 84 82 93 88 89 94 51 17 87 111 103 90 87 83 57 50 66 73 71 70 68 69 69 69 69 66 66 66 65 68 73 76 78 79 80 82 82 83 85 86 86
92 86 106 117 88 15 32 76 97 103 97 114 122 103 65 345 120 116 97 85 76 70 57 40 40 51 65 70 69 67 65 66 65 63 62 61 61 62 67 73 77 80 80 81 80 79 79 81 82
109 96 86 98 121 260 321 85 88 104 100 97 108 130 186 215 143 99 81 70 62 54 48 41 38 39 39 47 68 71 70 67 64 62 59 54 52 54 59 66 74 77 76 75 74 73 73 75 78
83 78 114 176 163 190 140 91 55 63 88 66 73 141 169 136 118 96 76 55 47 48 37 43 46 43 40 39 55 58 63 60 57 53 51 44 30 31 50 64 72 71 70 70 71 70 69 69 71
78 107 190 198 171 155 107 101 118 84 63 51 48 51 95 117 124 119 116 114 87 47 30 51 59 56 43 43 46 37 41 42 42 39 37 33 30 38 54 56 63 65 66 67 68 67 66 63 58
98 146 178 124 155 131 107 83 95 120 120 185 159 137 121 119 126 133 138 143 166 177 56 59 70 62 57 48 50 39 36 39 39 39 42 40 36 37 44 47 48 50 55 55 57 59 54 57 58
99 99 137 138 124 114 121 111 96 129 196 177 154 143 134 138 152 163 164 169 140 118 73 65 85 76 58 59 58 52 47 42 39 37 41 47 44 42 46 49 46 46 47 53 54 58 55 56 55
102 111 105 116 92 106 104 105 126 118 100 110 120 126 145 160 167 173 165 149 123 148 166 118 96 89 76 70 64 64 54 53 49 44 44 56 58 52 51 51 49 48 49 57 59 59 57 55 54
139 106 78 77 83 81 107 88 99 184 119 116 129 148 164 171 174 153 147 160 168 183 186 142 116 112 98 89 82 71 59 61 57 49 49 62 65 64 62 58 52 47 49 56 65 67 65 58 56
91 80 41 27 80 110 105 46 203 177 129 130 150 162 164 181 169 177 186 183 187 189 179 152 150 115 108 108 104 89 71 69 59 49 52 62 67 71 74 68 58 48 50 59 63 62 61 60 57
62 65 34 306 118 132 115 229 256 161 140 155 172 175 177 203 199 202 192 179 177 157 152 165 152 123 117 111 98 87 78 76 63 54 55 64 71 78 79 74 65 56 59 61 65 60 64 58 56
43 92 242 303 258 126 127 229 247 167 159 177 192 194 194 211 234 229 204 184 178 168 162 159 143 134 130 112 89 84 79 74 66 60 59 64 72 80 84 77 69 68 66 59 70 62 66 67 61
202 185 215 242 254 118 156 239 238 180 176 188 199 204 206 217 231 229 206 185 174 164 145 151 147 141 129 106 80 66 59 52 55 58 60 74 76 79 82 78 69 73 72 61 64 71 60 60 56
160 156 210 249 214 150 209 246 249 180 176 194 208 213 220 235 247 237 203 180 156 138 133 141 147 146 133 114 109 90 65 38 39 41 56 74 84 85 86 84 75 75 76 77 79 80 69 50 36
144 159 222 287 114 155 222 279 280 189 202 204 205 211 219 234 266 243 210 183 176 171 164 154 156 155 156 151 137 121 111 78 61 36 45 54 75 83 98 99 94 87 85 75 74 82 79 46 39
186 186 198 204 49 58 66 324 318 264 234 219 215 217 223 215 214 219 207 202 187 186 185 176 173 160 157 140 111 87 67 49 38 30 30 23 66 81 88 101 103 100 103 107 98 101 104 90 32
226 218 176 156 113 299 104 283 294 280 288 251 232 221 226 227 214 207 200 202 202 202 187 171 166 160 158 146 139 135 136 142 189 177 101 33 64 80 88 101 103 106 105 115 122 110 118 123 92
198 117 128 133 137 67 16 193 288 330 278 258 235 222 223 221 213 206 201 203 205 191 172 165 156 160 158 151 151 144 135 142 126 102 92 63 44 63 84 102 106 113 117 127 116 101 108 117 127
120 76 62 53 76 306 233 180 280 245 232 254 237 228 221 219 214 211 199 169 173 162 161 157 152 163 161 159 157 156 152 149 133 126 126 99 42 31 55 98 106 119 130 149 154 139 134 127 119
89 91 39 4 11 255 251 191 251 254 242 231 228 224 217 209 202 198 181 177 178 178 176 168 163 169 170 168 172 174 170 165 166 169 165 160 151 165 223 131 135 137 158 164 146 131 139 144 145
163 141 155 192 221 272 298 233 253 267 285 269 222 196 187 199 204 202 196 190 191 192 187 178 177 183 181 179 183 179 175 170 175 181 174 181 192 198 189 169 162 161 148 137 125 115 146 130 139
134 161 159 136 158 261 273 280 301 328 349 358 28 117 196 212 208 206 199 193 193 191 195 191 184 184 186 186 179 177 178 174 181 189 186 186 192 185 166 157 149 143 132 131 127 122 144 120 122
139 142 103 118 152 245 281 274 264 285 288 312 305 256 255 242 218 212 206 201 197 195 194 173 180 187 188 184 183 182 183 182 180 175 188 188 190 178 158 159 153 140 133 134 128 128 137 117 117
98 104 112 123 154 165 247 268 239 236 242 236 240 242 228 216 213 215 219 214 196 180 174 176 190 191 188 187 184 176 180 175 170 182 194 191 188 178 171 172 162 155 149 143 134 140 130 128 125
165 165 148 156 207 175 188 264 280 259 252 233 243 258 256 226 218 212 201 182 165 180 192 191 194 198 199 191 175 176 175 166 175 192 200 189 189 186 177 166 162 165 162 155 155 166 159 162 176